Starlink 11533

operational
NORAD ID: 62836 Int'l Des: 2025-019 Owner: SPXS Country: US Constellation: starlink
LEOCIRCULAR

关于 Starlink 11533

正在加载描述...

实时位置

正在加载3D地球...

即将过境

高度历史

Altitude vs Time

uPlot chart will show altitude changes over time

两行轨道根数

1 62836U 25019H 25257.46144199 .00294887 00000-0 22164-2 0 9996
2 62836 43.0001 288.3147 0001661 300.3241 59.7463 15.70889820 36163
Epoch: Sep 14, 2025 • Age: 26 hours

当前状态

高度 356.6 km
速度 7.70 km/s
星下点 32.88°N, 139.93°W
发射日期 Jan 27, 2025
运行时间 0.6 years
类型 internet

技术详情

分类 Payload
质量 960.00 kg
干质量 910.00 kg
总质量 960.00 kg
长度 0.30 m
直径 4.10 m
跨度 29.00 m
形状 Box + pan
制造商 SPXS
平台类型 Starlink V2MD
阶段状态 In Orbit
所有者/国家 SPXS/US

大型星座

Loading constellations...